sat.trackr.live / text

‹ back to catalog

STARLINK-5989

NORAD 56781 · 2023-078Q

PAYLOAD ACTIVE UNKNOWN

§ Identity

Operator
Country
US
Launch date
2023-05-31
Launch site
AFWTR
Launch vehicle
Mass (kg)
RCS (m²)

Purposes: comms

External: N2YO · Heavens-Above · Gunter

§ Orbital elements

Epoch: 2026-09-20T06:19:29.747136Z

Period
96.11 min
Inclination
69.9998°
Eccentricity
0.0003338
Mean motion
14.98324365 rev/d
Perigee alt
569.8 km
Apogee alt
574.4 km
Semi-major
6,950.2 km
B*
-3.6762e-5
RAAN
213.9382°
Arg perigee
267.6254°
Mean anomaly
92.4523°
Rev number
18,182

§ Raw data

STARLINK-59891 56781U 23078Q   26263.26353874 -.00000532  00000+0 -36762-4 0  99932 56781  69.9998 213.9382 0003338 267.6254  92.4523 14.98324365181826

JSON: /api/v1/satellites/56781 · /tle

For live sub-satellite position, see the globe view (requires WebGL).

§ Visibility from observer

Set your observer location to see the next 7 days of passes ≥ 10°. The values pass through the URL so the page stays shareable.

No JS? Fill the form by hand. The geolocation button needs JavaScript.